User: anonymous   Login
Location: Ostrava
(49.8330°N, 18.2830°E)
Time: 02:05:46
(UTC+01:00)
Language:

Cosmos 1400 Rocket - Orbit

View from above orbital plane
View from above orbital plane
View from above satellite
View from above satellite

Ground track
Ground track

The orbit data is extracted from the following two-line orbital elements,

1 13403U 82079B   15025.51810784  .00002687  00000-0  18741-3 0  7719
2 13403 081.1704 188.9943 0035014 274.4857 085.2366 15.04592727765231
Epoch (UTC): 25 January 2015 12:26:04
Eccentricity: 0.0035014
inclination: 81.1704°
perigee height: 528 km
apogee height: 577 km
right ascension of ascending node: 188.9943°
argument of perigee: 274.4857°
revolutions per day: 15.04592727
mean anomaly at epoch: 85.2366°
orbit number at epoch: 76523

The dashed part of the orbit path shows where the satellite is in the earth's shadow,  

DLR